Tracking 18840 objects as of 18-November-2017
HD Live streaming from Space Station
objects crossing your sky now

FENGYUN 1C DEB

Track FENGYUN 1C DEB now!
10-day predictions


NORAD ID: 31320
Int'l Code: 1999-025BPY
Perigee: 806.4 km
Apogee: 991.8 km
Inclination: 98.3 °
Period: 102.8 minutes
Semi major axis: 7270 km
RCS: 0.0097 m2 (small)
Launch date: May 10, 1999
Source: People's Republic of China (PRC)
Launch site: Taiyaun Space Center, China (TSC)

Note: This is SATELLITE DEBRIS
aabbcc
Your satellite tracking list
Your tracking list is empty




NASA's NSSDC Master Catalog

Two Line Element Set (TLE):
1 31320U 99025BPY 17318.28562198  .00000683  00000-0  45286-3 0  9990
2 31320  98.3041 329.0511 0127547 220.0877 139.0825 14.00533178539297
Source of the keplerian elements: AFSPC